Weather History for Siloam Springs, AR

Change the Weather History Date:

Tuesday, July 2, 2013

  Actual Average Record
Temperature  
Mean Temperature 66 °F -  
Max Temperature 80 °F 84 °F 98 °F (2011)
Min Temperature 53 °F 65 °F 53 °F (2013)
Cooling Degree Days 2    
Growing Degree Days 16 (Base 50)    
Moisture  
Dew Point 51 °F    
Average Humidity 56    
Maximum Humidity 82    
Minimum Humidity 34    
Precipitation  
Precipitation 0.00 in - - ()
Sea Level Pressure  
Sea Level Pressure 30.10 in    
Wind  
Wind Speed 5 mph (North)    
Max Wind Speed 13 mph    
Max Gust Speed 20 mph    
Visibility 10 miles    
Events      
Averages and records for this station are not official NWS values.
T = Trace of Precipitation, MM = Missing Value Source: NWS Daily Summary

Daily Weather History Graph

Daily Weather History Graph

Search for Another Location

Airport:

Trip Planner

Search our weather history database for the weather conditions in past years. The results will help you decide how hot, cold, wet, or windy it might be!

Date:

Astronomy

Jul. 02, 2013 Rise Set
Actual Time 6:04 AM CDT 8:39 PM CDT
Civil Twilight 5:34 AM CDT 9:09 PM CDT
Nautical Twilight 4:57 AM CDT 9:46 PM CDT
Astronomical Twilight 4:15 AM CDT 10:28 PM CDT
Moon 2:02 AM CDT (7/2) 3:57 PM CDT (7/2)
Length of Visible Light 15h 34m
Length of Day
14h 34m
Waning Crescent, 26% of the Moon is Illuminated
Jul 2
Waning Crescent
Jul 8
New
Jul 15
First Quarter
Jul 22
Full
Jul 29
Last Quarter

Hourly Weather History & Observations

Time (CDT) Temp. Heat Index Dew Point Humidity Pressure Visibility Wind Dir Wind Speed Gust Speed Precip Events Conditions
12:15 AM 62.6 °F - 50.0 °F 63% 30.08 in 10.0 mi North 5.8 mph - N/A   Clear
12:35 AM 62.6 °F - 50.0 °F 63% 30.08 in 10.0 mi North 4.6 mph - N/A   Clear
12:55 AM 62.6 °F - 50.0 °F 63% 30.08 in 10.0 mi North 4.6 mph - N/A   Clear
1:16 AM 62.6 °F - 50.0 °F 63% 30.07 in 10.0 mi NNE 5.8 mph - N/A   Clear
1:35 AM 60.8 °F - 50.0 °F 68% 30.07 in 10.0 mi North 4.6 mph - N/A   Clear
1:55 AM 60.8 °F - 50.0 °F 68% 30.07 in 10.0 mi North 5.8 mph - N/A   Clear
2:15 AM 57.2 °F - 48.2 °F 72% 30.07 in 10.0 mi NNW 4.6 mph - N/A   Clear
2:35 AM 57.2 °F - 48.2 °F 72% 30.07 in 10.0 mi NNW 5.8 mph - N/A   Clear
2:55 AM 57.2 °F - 48.2 °F 72% 30.07 in 10.0 mi NNW 3.5 mph - N/A   Clear
3:35 AM 57.2 °F - 48.2 °F 72% 30.07 in 10.0 mi NNW 3.5 mph - N/A   Clear
4:36 AM 55.4 °F - 48.2 °F 77% 30.07 in 10.0 mi Calm Calm - N/A   Clear
4:55 AM 53.6 °F - 48.2 °F 82% 30.08 in 10.0 mi Calm Calm - N/A   Clear
5:15 AM 55.4 °F - 48.2 °F 77% 30.09 in 10.0 mi Calm Calm - N/A   Clear
5:36 AM 55.4 °F - 48.2 °F 77% 30.09 in 10.0 mi Calm Calm - N/A   Clear
5:55 AM 53.6 °F - 48.2 °F 82% 30.10 in 9.0 mi Calm Calm - N/A   Clear
6:15 AM 53.6 °F - 48.2 °F 82% 30.10 in 9.0 mi Calm Calm - N/A   Clear
6:55 AM 53.6 °F - 48.2 °F 82% 30.11 in 9.0 mi Calm Calm - N/A   Clear
7:15 AM 57.2 °F - 51.8 °F 82% 30.11 in 10.0 mi Calm Calm - N/A   Clear
7:35 AM 60.8 °F - 53.6 °F 77% 30.12 in 10.0 mi Calm Calm - N/A   Clear
7:55 AM 60.8 °F - 53.6 °F 77% 30.12 in 10.0 mi Calm Calm - N/A   Clear
8:15 AM 64.4 °F - 53.6 °F 68% 30.12 in 10.0 mi North 3.5 mph - N/A   Clear
8:35 AM 66.2 °F - 55.4 °F 68% 30.12 in 10.0 mi NNE 3.5 mph - N/A   Clear
9:15 AM 69.8 °F - 55.4 °F 60% 30.13 in 10.0 mi NNE 4.6 mph - N/A   Clear
9:35 AM 71.6 °F - 55.4 °F 57% 30.13 in 10.0 mi North 4.6 mph - N/A   Clear
10:15 AM 73.4 °F - 55.4 °F 53% 30.13 in 10.0 mi NNW 5.8 mph - N/A   Clear
10:35 AM 73.4 °F - 53.6 °F 50% 30.13 in 10.0 mi NNW 5.8 mph - N/A   Clear
10:55 AM 73.4 °F - 53.6 °F 50% 30.12 in 10.0 mi North 9.2 mph - N/A   Clear
11:15 AM 75.2 °F - 53.6 °F 47% 30.12 in 10.0 mi North 11.5 mph 19.6 mph N/A   Clear
11:35 AM 75.2 °F - 53.6 °F 47% 30.12 in 10.0 mi North 12.7 mph 19.6 mph N/A   Clear
11:55 AM 77.0 °F - 51.8 °F 41% 30.12 in 10.0 mi North 11.5 mph 16.1 mph N/A   Clear
12:15 PM 77.0 °F - 53.6 °F 44% 30.12 in 10.0 mi North 12.7 mph 17.3 mph N/A   Clear
12:55 PM 78.8 °F - 51.8 °F 39% 30.12 in 10.0 mi NNE 8.1 mph - N/A   Partly Cloudy
1:15 PM 77.0 °F - 53.6 °F 44% 30.11 in 10.0 mi NNE 8.1 mph - N/A   Scattered Clouds
1:36 PM 78.8 °F - 53.6 °F 42% 30.11 in 10.0 mi NNW 10.4 mph 16.1 mph N/A   Mostly Cloudy
2:55 PM 78.8 °F - 53.6 °F 42% 30.09 in 10.0 mi NNW 6.9 mph - N/A   Scattered Clouds
3:15 PM 80.6 °F 80.3 °F 53.6 °F 39% 30.09 in 10.0 mi North 6.9 mph - N/A   Scattered Clouds
3:55 PM 78.8 °F - 51.8 °F 39% 30.09 in 10.0 mi NNE 5.8 mph - N/A   Partly Cloudy
4:35 PM 80.6 °F - 51.8 °F 37% 30.08 in 10.0 mi North 8.1 mph - N/A   Partly Cloudy
4:55 PM 78.8 °F - 51.8 °F 39% 30.08 in 10.0 mi NNE 8.1 mph - N/A   Partly Cloudy
5:15 PM 78.8 °F - 51.8 °F 39% 30.08 in 10.0 mi NNE 11.5 mph - N/A   Partly Cloudy
5:35 PM 78.8 °F - 50.0 °F 36% 30.07 in 10.0 mi NNE 9.2 mph - N/A   Clear
6:15 PM 78.8 °F - 48.2 °F 34% 30.07 in 10.0 mi North 11.5 mph - N/A   Clear
6:35 PM 78.8 °F - 48.2 °F 34% 30.07 in 10.0 mi NNE 10.4 mph - N/A   Clear
6:55 PM 78.8 °F - 50.0 °F 36% 30.07 in 10.0 mi NNE 6.9 mph - N/A   Clear
7:15 PM 77.0 °F - 51.8 °F 41% 30.08 in 10.0 mi NNE 8.1 mph - N/A   Clear
7:35 PM 75.2 °F - 50.0 °F 41% 30.08 in 10.0 mi NE 6.9 mph - N/A   Clear
7:55 PM 73.4 °F - 51.8 °F 47% 30.08 in 10.0 mi NNE 4.6 mph - N/A   Clear
8:15 PM 73.4 °F - 50.0 °F 44% 30.08 in 10.0 mi NNE 3.5 mph - N/A   Clear
8:35 PM 71.6 °F - 50.0 °F 46% 30.09 in 10.0 mi NNE 3.5 mph - N/A   Clear
9:15 PM 69.8 °F - 50.0 °F 49% 30.09 in 10.0 mi NNE 3.5 mph - N/A   Clear
9:35 PM 69.8 °F - 50.0 °F 49% 30.10 in 10.0 mi NNE 3.5 mph - N/A   Clear
9:36 PM 69.8 °F - 50.0 °F 49% 30.10 in 10.0 mi NNE 3.5 mph - N/A   Clear
9:55 PM 68.0 °F - 50.0 °F 52% 30.11 in 10.0 mi NNE 3.5 mph - N/A   Clear
10:15 PM 66.2 °F - 50.0 °F 56% 30.11 in 10.0 mi Calm Calm - N/A   Clear
10:36 PM 64.4 °F - 51.8 °F 64% 30.11 in 10.0 mi Calm Calm - N/A   Clear
11:15 PM 64.4 °F - 50.0 °F 59% 30.11 in 10.0 mi Calm Calm - N/A   Clear
11:35 PM 64.4 °F - 50.0 °F 59% 30.11 in 10.0 mi Calm Calm - N/A   Clear